Weather History for Taloyoak, NU

Change the Weather History Date:

Saturday, March 2, 2013

  Actual Average Record
Temperature  
Mean Temperature -1 °F -  
Max Temperature 11 °F -11 °F 11 °F (2013)
Min Temperature -13 °F -23 °F -43 °F (2003)
Degree Days  
Heating Degree Days 66    
Moisture  
Dew Point 2 °F    
Average Humidity 86    
Maximum Humidity 92    
Minimum Humidity 74    
Precipitation  
Precipitation 0.12 in - - ()
Sea Level Pressure  
Sea Level Pressure 30.24 in    
Wind  
Wind Speed 15 mph ()    
Max Wind Speed 24 mph    
Max Gust Speed 32 mph    
Visibility 4.4 miles    
Events Snow    
Averages and records for this station are not official NWS values.
T = Trace of Precipitation, MM = Missing Value Source: Averaged Metar Reports

Daily Weather History Graph

Daily Weather History Graph

Search for Another Location

Airport:

Trip Planner

Search our weather history database for the weather conditions in past years. The results will help you decide how hot, cold, wet, or windy it might be!

Date:

Astronomy

Mar. 02, 2013 Rise Set
Actual Time 7:33 AM CST 5:21 PM CST
Civil Twilight 6:33 AM CST 6:21 PM CST
Nautical Twilight 5:24 AM CST 7:31 PM CST
Astronomical Twilight 4:10 AM CST 8:45 PM CST
Moon 1:01 AM CST (3/2) 6:44 AM CST (3/2)
Length of Visible Light 11h 48m
Length of Day
9h 47m
Waning Gibbous, 74% of the Moon is Illuminated
Mar 2
Waning Gibbous
Mar 4
Last Quarter
Mar 11
New
Mar 19
First Quarter
Mar 27
Full

Hourly Weather History & Observations

Time (CST) Temp. Windchill Dew Point Humidity Pressure Visibility Wind Dir Wind Speed Gust Speed Precip Events Conditions
12:00 AM -6 °F - -10 °F 74% 30.27 in 15 mi ESE 12.7 mph - - Snow Light Snow
12:00 AM -5.8 °F -25.2 °F -9.4 °F 84% 30.27 in 15.0 mi ESE 12.7 mph - N/A Snow Light Snow
1:00 AM -5.8 °F -26.0 °F -9.4 °F 84% 30.27 in 15.0 mi ESE 13.8 mph - N/A Snow Light Snow
2:00 AM -4.0 °F -23.0 °F -9.4 °F 78% 30.27 in 15.0 mi ESE 12.7 mph - N/A Snow Light Snow
3:00 AM -2.2 °F -22.2 °F -5.8 °F 85% 30.27 in 15.0 mi SE 15.0 mph - N/A Snow Light Snow
5:00 AM -0.4 °F -18.4 °F -5.8 °F 78% 30.26 in 12.0 mi ESE 12.7 mph - N/A Snow Light Snow
6:00 AM 2 °F - -2 °F 77% 30.25 in 10 mi East 12.7 mph - - Snow Light Snow
6:00 AM 1.4 °F -16.1 °F -2.2 °F 85% 30.25 in 10.0 mi East 12.7 mph - N/A Snow Light Snow
7:00 AM 5.0 °F -14.7 °F 1.4 °F 85% 30.24 in 3.0 mi SE 18.4 mph - N/A Snow Light Snow
7:27 AM - - - N/A% - 1.2 mi SE 18.4 mph - N/A   Unknown
7:46 AM - - - N/A% - 2.0 mi SE 21.9 mph - N/A   Unknown
8:00 AM 5.0 °F -14.7 °F 1.4 °F 85% 30.23 in 2.0 mi SE 18.4 mph - N/A Snow Light Snow
9:00 AM 8.6 °F -11.4 °F 5.0 °F 85% 30.22 in 1.0 mi SE 21.9 mph - N/A Snow Light Snow
10:00 AM 8.6 °F -10.0 °F 6.8 °F 92% 30.22 in 1.0 mi SSE 18.4 mph 24.2 mph N/A Snow Light Snow
10:33 AM - - - N/A% - 0.8 mi SE 21.9 mph - N/A   Unknown
11:00 AM 8.6 °F -10.5 °F 6.8 °F 92% 30.20 in 0.8 mi SSE 19.6 mph - N/A Snow Light Snow
12:00 PM 10 °F - 7 °F 83% 30.20 in 1 mi SSE 21.9 mph - - Snow Light Snow
12:00 PM 10.4 °F -9.1 °F 6.8 °F 85% 30.20 in 0.8 mi SSE 21.9 mph - N/A Snow Light Snow
1:00 PM 10.4 °F -8.2 °F 8.6 °F 92% 30.20 in 0.8 mi SSE 19.6 mph - N/A Snow Light Snow
1:39 PM - - - N/A% - 1.0 mi South 17.3 mph 23.0 mph N/A   Unknown
2:00 PM 10.4 °F -9.5 °F 8.6 °F 92% 30.20 in 0.8 mi South 23.0 mph - N/A Snow Light Snow
3:00 PM 10.4 °F -9.1 °F 8.6 °F 92% 30.21 in 0.8 mi South 21.9 mph 32.2 mph N/A Snow Light Snow
4:00 PM 10.4 °F -9.9 °F 6.8 °F 85% 30.21 in 0.5 mi South 24.2 mph 29.9 mph N/A Snow Light Snow
5:26 PM - - - N/A% - 0.5 mi South 24.2 mph - N/A   Unknown
6:00 PM 8 °F - 6 °F 89% 30.23 in 0 mi SSW 24.2 mph - - Snow Light Snow
6:00 PM 8.6 °F -12.3 °F 6.8 °F 92% 30.23 in 0.5 mi SSW 24.2 mph 29.9 mph N/A Snow Light Snow
7:00 PM 8.6 °F -11.4 °F 5.0 °F 85% 30.25 in 1.0 mi SSW 21.9 mph - N/A Snow Light Snow
8:00 PM 8.6 °F -11.4 °F 5.0 °F 85% 30.26 in 2.0 mi SSW 21.9 mph - N/A Snow Light Snow
8:42 PM - - - N/A% - 3.0 mi SW 16.1 mph 21.9 mph N/A   Unknown
9:00 PM 8.6 °F -7.7 °F 6.8 °F 92% 30.30 in 3.0 mi SW 13.8 mph - N/A Snow Light Snow
10:00 PM 5.0 °F -4.1 °F 3.2 °F 92% 30.32 in 3.0 mi West 4.6 mph - N/A Snow Light Snow
11:00 PM 3.2 °F -17.1 °F -0.4 °F 85% 30.33 in 4.0 mi WSW 18.4 mph - N/A Snow Light Snow